EW3163 Weather Reports


time (UTC)temp
C
wind
direction
speed
KPH
gust
KPH
rain 1hr
cm
rain 24hr
cm
rain mn
cm
humidity
%
barometer
mb
20260506131515 8 30 0.0 3.2 0.00 0.00 0.00 63 1016.1
20260506130010 9 89 0.0 0.0 0.00 0.00 0.00 64 1016.0
20260506124508 9 86 0.0 0.0 0.00 0.00 0.00 62 1016.0
20260506123006 9 25 0.0 0.0 0.00 0.00 0.00 64 1016.1
20260506121506 9 83 0.0 6.4 0.00 0.00 0.00 60 1016.2
20260506120005 9 20 0.0 8.0 0.00 0.00 0.00 62 1016.3
20260506114505 9 33 0.0 1.6 0.00 0.00 0.00 64 1016.3
20260506113003 9 23 0.0 0.0 0.00 0.00 0.00 63 1016.4
20260506111501 9 26 0.0 1.6 0.00 0.00 0.00 64 1016.4
20260506110103 8 30 0.0 1.6 0.00 0.00 0.00 67 1016.4
20260506104614 7 27 0.0 20.9 0.00 0.00 0.00 68 1016.5
20260506103054 7 23 0.0 6.4 0.00 0.00 0.00 71 1016.5
20260506101559 7 25 0.0 4.8 0.00 0.00 0.00 70 1016.5
20260506100051 7 11 0.0 8.0 0.00 0.00 0.00 69 1016.4
20260506094557 7 31 0.0 16.1 0.00 0.00 0.00 70 1016.5
20260506093054 7 20 0.0 12.9 0.00 0.00 0.00 72 1016.5
20260506091550 7 25 0.0 8.0 0.00 0.00 0.00 73 1016.6
20260506090046 7 25 0.0 4.8 0.00 0.00 0.00 72 1016.6
20260506084550 7 19 0.0 6.4 0.00 0.00 0.00 73 1016.5
20260506083043 7 356 0.0 9.7 0.00 0.00 0.00 75 1016.5
20260506081541 6 331 0.0 9.7 0.00 0.00 0.00 77 1016.6
20260506073040 6 318 0.0 6.4 0.00 0.00 0.00 83 1016.4
20260506071530 5 12 0.0 1.6 0.00 0.00 0.00 87 1016.4
20260506061521 2 356 0.0 0.0 0.00 0.00 0.00 95 1016.3
20260506044523 0 334 0.0 0.0 0.00 0.00 0.00 95 1016.3
20260506043017 0 335 0.0 0.0 0.00 0.00 0.00 95 1016.3
20260506041525 0 335 0.0 0.0 0.00 0.00 0.00 94 1016.3
20260506040013 0 335 0.0 0.0 0.00 0.00 0.00 94 1016.3
20260506034512 0 335 0.0 0.0 0.00 0.00 0.00 94 1016.4
20260506033010 0 335 0.0 0.0 0.00 0.00 0.00 94 1016.3
20260506031514 0 334 0.0 0.0 0.00 0.00 0.00 94 1016.4
20260506030010 0 335 0.0 0.0 0.00 0.00 0.00 94 1016.3
20260506024507 0 335 0.0 0.0 0.00 0.00 0.00 94 1016.3
20260506023004 0 335 0.0 0.0 0.00 0.00 0.00 94 1016.4
20260506021506 0 334 0.0 0.0 0.00 0.00 0.00 94 1016.4
20260506020002 0 335 0.0 0.0 0.00 0.00 0.00 93 1016.4
20260506014601 0 335 0.0 0.0 0.00 0.00 0.00 93 1016.5
20260506014500 0 335 0.0 0.0 0.00 0.00 0.00 93 1016.5
20260506013058 1 335 0.0 0.0 0.00 0.00 0.00 93 1016.5
20260506011556 1 335 0.0 0.0 0.00 0.00 0.00 92 1016.5
20260506010054 1 335 0.0 0.0 0.00 0.00 0.00 92 1016.5
20260506004556 1 334 0.0 0.0 0.00 0.00 0.00 91 1016.6
20260506003048 2 335 0.0 0.0 0.00 0.00 0.00 91 1016.5
20260506001606 2 335 0.0 0.0 0.00 0.00 0.00 91 1016.6
20260506000047 3 335 0.0 0.0 0.00 0.00 0.00 90 1016.6
20260505234547 3 335 0.0 0.0 0.00 0.00 0.00 90 1016.7
20260505233037 3 334 0.0 0.0 0.00 0.00 0.00 90 1016.8
20260505231541 3 334 0.0 0.0 0.00 0.00 0.00 90 1016.9
20260505230037 3 351 0.0 0.0 0.00 0.00 0.00 90 1016.9
20260505224538 3 13 0.0 0.0 0.00 0.00 0.00 91 1017.0
20260505223041 4 13 0.0 0.0 0.00 0.00 0.00 90 1016.9
20260505221531 4 13 0.0 0.0 0.00 0.00 0.00 88 1016.8
20260505220038 5 13 0.0 0.0 0.00 0.00 0.00 89 1016.8
20260505214548 4 13 0.0 0.0 0.00 0.00 0.00 89 1016.9
20260505213048 4 13 0.0 0.0 0.00 0.00 0.00 87 1016.9
20260505211528 5 13 0.0 0.0 0.00 0.00 0.00 87 1017.0
20260505210030 5 13 0.0 0.0 0.00 0.00 0.00 86 1017.0
20260505204531 5 13 0.0 1.6 0.00 0.00 0.00 85 1017.0
20260505203026 6 356 0.0 3.2 0.00 0.00 0.00 86 1016.9
20260505201542 6 1 0.0 1.6 0.00 0.00 0.00 86 1016.9
20260505200028 6 1 0.0 12.9 0.00 0.00 0.00 86 1016.8
20260505194523 6 18 0.0 6.4 0.00 0.00 0.00 86 1016.8
20260505193038 6 14 3.2 16.1 0.00 0.00 0.00 86 1016.7
20260505191520 6 349 0.0 9.7 0.00 0.00 0.00 86 1016.7
20260505190029 7 354 0.0 12.9 0.00 0.00 0.00 86 1016.5
20260505184519 7 34 1.6 9.7 0.00 0.00 0.00 85 1016.4
20260505183022 7 308 1.6 12.9 0.00 0.00 0.00 84 1016.4
20260505181518 7 13 0.0 11.3 0.00 0.00 0.00 83 1016.3
20260505180029 7 19 4.8 17.7 0.00 0.00 0.00 81 1016.3
20260505174517 7 318 6.4 20.9 0.00 0.00 0.00 81 1016.2
20260505173014 7 40 3.2 17.7 0.00 0.00 0.00 81 1016.2
20260505171524 7 46 6.4 22.5 0.00 0.00 0.00 80 1016.3
20260505170015 7 6 1.6 12.9 0.00 0.00 0.00 80 1016.2
20260505164523 7 330 6.4 17.7 0.00 0.00 0.00 80 1016.2
20260505163009 8 285 0.0 12.9 0.00 0.00 0.00 83 1016.1
20260505161506 8 300 6.4 27.4 0.00 0.00 0.00 81 1015.9
20260505153004 8 310 9.7 19.3 0.00 0.00 0.00 81 1015.8
20260505151502 8 301 6.4 24.1 0.00 0.00 0.00 81 1015.7
20260505140117 9 7 1.6 14.5 0.00 0.00 0.00 82 1015.3